{"data":{"norad_id":58536,"epoch":"2026-09-20T22:21:46.869408Z","epoch_age_seconds":109649,"freshness":"FRESH","line1":"1 58536U 23192F   26263.93179247 -.00001068  00000+0 -20459-4 0  9995","line2":"2 58536  53.1600 231.9266 0001998  98.8072 261.3157 15.34383088155935","mean_motion":15.34383088,"eccentricity":0.0001998,"inclination_deg":53.16,"raan_deg":231.9266,"arg_perigee_deg":98.8072,"mean_anomaly_deg":261.3157,"bstar":-2.0459e-5,"rev_number":15593,"period_min":93.848792473135,"perigee_km":461.3866967736,"apogee_km":464.12031662008,"semimajor_km":6840.8905066968,"source":"CELESTRAK","updated_at":"2026-09-21T09:00:33.912845Z"}}